Weather History for KPPF - May, 2013

Change the Weather History Date:

Saturday, May 11, 2013

  Actual Average Record
Temperature  
Mean Temperature 58 °F -  
Max Temperature 70 °F 76 °F 92 °F (1963)
Min Temperature 45 °F 54 °F 37 °F (1981)
Degree Days  
Heating Degree Days 8    
Growing Degree Days 8 (Base 50)    
Moisture  
Dew Point 44 °F    
Average Humidity 69    
Maximum Humidity 93    
Minimum Humidity 31    
Precipitation  
Precipitation 0.00 in - - ()
Sea Level Pressure  
Sea Level Pressure 30.14 in    
Wind  
Wind Speed 3 mph (NNW)    
Max Wind Speed 18 mph    
Max Gust Speed 26 mph    
Visibility 7 miles    
Events      
Averages and records for this station are not official NWS values.
T = Trace of Precipitation, MM = Missing Value Source: NWS Daily Summary

Daily Weather History Graph

Daily Weather History Graph

Search for Another Location

Airport or City:

Trip Planner

Search our weather history database for the weather conditions in past years. The results will help you decide how hot, cold, wet, or windy it might be!

Date:

Astronomy

May. 11, 2013 Rise Set
Actual Time 6:16 AM CDT 8:20 PM CDT
Civil Twilight 5:47 AM CDT 8:49 PM CDT
Nautical Twilight 5:12 AM CDT 9:25 PM CDT
Astronomical Twilight 4:34 AM CDT 10:03 PM CDT
Moon 7:25 AM CDT (5/11) 10:01 PM CDT (5/11)
Length of Visible Light 15h 02m
Length of Day
14h 04m
Waxing Crescent, 3% of the Moon is Illuminated
May 11
Waxing Crescent
May 17
First Quarter
May 24
Full
May 31
Last Quarter
Jun 8
New

Hourly Weather History & Observations

Time (CDT) Temp. Dew Point Humidity Pressure Visibility Wind Dir Wind Speed Gust Speed Precip Events Conditions
12:52 AM 50.0 °F 46.9 °F 89% 30.10 in 9.0 mi Calm Calm - N/A   Clear
1:52 AM 48.9 °F 46.9 °F 93% 30.10 in 7.0 mi Calm Calm - N/A   Clear
2:52 AM 48.0 °F 46.0 °F 93% 30.10 in 7.0 mi Calm Calm - N/A   Clear
3:47 AM 46.4 °F 44.6 °F 93% 30.10 in 4.0 mi Calm Calm - N/A   Scattered Clouds
3:52 AM 46.9 °F 44.1 °F 90% 30.10 in 4.0 mi Calm Calm - N/A   Mostly Cloudy
4:08 AM 46.4 °F 44.6 °F 93% 30.10 in 6.0 mi Calm Calm - N/A   Scattered Clouds
4:52 AM 46.0 °F 43.0 °F 89% 30.10 in 6.0 mi Calm Calm - N/A   Scattered Clouds
4:59 AM 46.4 °F 44.6 °F 93% 30.10 in 3.0 mi Calm Calm - N/A   Mostly Cloudy
5:02 AM 46.4 °F 44.6 °F 93% 30.10 in 1.5 mi Calm Calm - N/A   Mostly Cloudy
5:04 AM 46.4 °F 44.6 °F 93% 30.10 in 1.0 mi Calm Calm - N/A   Mist
5:13 AM 46.4 °F 44.6 °F 93% 30.10 in 1.5 mi Calm Calm - N/A   Mostly Cloudy
5:16 AM 46.4 °F 44.6 °F 93% 30.10 in 4.0 mi Calm Calm - N/A   Mostly Cloudy
5:23 AM 46.4 °F 44.6 °F 93% 30.10 in 6.0 mi Calm Calm - N/A   Scattered Clouds
5:52 AM 45.0 °F 43.0 °F 93% 30.10 in 6.0 mi Calm Calm - N/A   Clear
6:52 AM 46.0 °F 44.1 °F 93% 30.11 in 5.0 mi Calm Calm - N/A   Clear
7:52 AM 55.0 °F 52.0 °F 89% 30.12 in 9.0 mi Calm Calm - N/A   Clear
8:52 AM 62.1 °F 52.0 °F 70% 30.13 in 10.0 mi WNW 4.6 mph - N/A   Clear
9:52 AM 68.0 °F 52.0 °F 56% 30.14 in 10.0 mi WNW 6.9 mph - N/A   Clear
10:52 AM 69.1 °F 53.1 °F 57% 30.14 in 10.0 mi NNW 15.0 mph 19.6 mph N/A   Clear
11:52 AM 68.0 °F 50.0 °F 52% 30.16 in 10.0 mi North 16.1 mph 21.9 mph N/A   Clear
12:52 PM 69.1 °F 44.1 °F 40% 30.18 in 10.0 mi North 17.3 mph 26.5 mph N/A   Partly Cloudy
1:52 PM 69.1 °F 39.9 °F 35% 30.20 in 10.0 mi NNW 16.1 mph 24.2 mph N/A   Clear
2:52 PM 70.0 °F 39.0 °F 32% 30.20 in 10.0 mi North 16.1 mph 24.2 mph N/A   Clear
3:52 PM 70.0 °F 39.0 °F 32% 30.19 in 10.0 mi North 11.5 mph 24.2 mph N/A   Clear
4:52 PM 70.0 °F 37.9 °F 31% 30.19 in 10.0 mi NNW 18.4 mph 23.0 mph N/A   Clear
5:52 PM 69.1 °F 37.9 °F 32% 30.20 in 10.0 mi North 10.4 mph - N/A   Clear
6:52 PM 66.9 °F 35.1 °F 31% 30.20 in 10.0 mi North 10.4 mph - N/A   Clear
7:52 PM 62.1 °F 35.1 °F 37% 30.21 in 10.0 mi North 6.9 mph - N/A   Clear
8:52 PM 57.9 °F 35.1 °F 42% 30.22 in 10.0 mi North 4.6 mph - N/A   Clear
9:52 PM 51.1 °F 42.1 °F 71% 30.22 in 10.0 mi Calm Calm - N/A   Clear
10:52 PM 52.0 °F 37.9 °F 59% 30.24 in 10.0 mi North 5.8 mph - N/A   Clear